#timestamp,LO_Frequency,Hit,StdDev 
1610618415.5,286047000.3,N
1610618435.3,286047000.2,N
1610618455.1,286046998.1,N
1610618475.9,286047000.4,N
1610618495.7,286047007.6,N
1610618515.6,286047005.4,N
1610618535.4,286047006.1,N
1610618555.2,286047012.0,N
1610618575.1,286047007.8,N
1610618576.0,286047007.8,N
1610618595.8,286047008.1,N
1610618615.7,286047006.8,N
1610618635.5,286047005.2,N
1610618655.3,286047007.5,N
1610618675.2,286047006.6,N
1610618695.9,286047009.1,N
1610618715.7,286047011.2,N
1610618735.6,286047012.6,N
1610618755.4,286047013.6,N
1610618775.3,286047012.2,N
1610618795.1,286047008.8,N
1610618796.0,286047008.8,N
1610618815.8,286047001.7,N
1610618835.7,286047002.5,N
1610618855.5,286047005.6,N
1610618875.3,286047004.9,N
1610618895.2,286047003.5,N
1610618915.0,286047000.9,N
1610618915.9,286047000.9,N
1610618935.8,286047003.8,N
1610618955.6,286047005.2,N
1610618975.4,286047004.7,N
1610618995.3,286047005.7,N
1610619015.1,286047005.5,N
1610619035.9,286047002.4,N
1610619055.7,286046996.7,N
1610619075.5,286046995.3,N
1610619095.4,286046993.4,N
1610619115.2,286046993.8,N
1610619135.0,286046995.5,N
1610619135.9,286046995.5,N
1610619155.8,286046996.7,N
1610619175.6,286046998.6,N
1610619195.5,286046997.2,N
1610619215.3,286047001.1,N
1610619235.1,286046998.5,N
1610619255.9,286047001.1,N
1610619275.7,286046999.6,N
1610619295.5,286046998.1,N
1610619315.4,286046998.2,N
1610619335.2,286046997.6,N
1610619355.1,286046993.3,N
1610619356.0,286046993.3,N
1610619375.8,286046994.4,N
1610619395.6,286046988.9,N
1610619415.5,286046988.5,N
1610619435.3,286046985.3,Y
1610619455.2,286046984.3,P
1610619475.9,286046982.1,N
1610619495.7,286046982.5,N
1610619515.6,286046986.4,N
1610619535.4,286046987.5,N
1610619555.3,286046995.6,N
1610619575.1,286046999.4,N
1610619576.0,286046999.4,N
1610619595.8,286046998.6,N
1610619615.7,286046997.9,N
1610619635.5,286046999.4,N
1610619655.3,286046998.4,N
1610619675.2,286046995.6,N
1610619695.0,286046993.6,N
1610619695.9,286046993.6,N
1610619715.8,286046999.1,N
1610619735.6,286046996.7,N
1610619755.4,286047001.2,N
1610619805.3,286046995.5,E
1610619815.2,286046997.0,N
1610619835.1,286046996.5,P
1610619836.0,286046996.5,P
1610619855.8,286046996.8,Y
1610619875.7,286046999.5,P
1610619895.5,286046998.7,N
1610619915.3,286046998.7,N
1610619935.2,286046996.3,Y
1610619955.0,286046998.7,P
1610619955.9,286046998.7,P
1610619975.8,286047006.6,P
1610619995.6,286047009.8,N
1610620015.4,286047010.0,N
1610620035.3,286047007.7,N
1610620055.1,286047007.4,N
1610620075.8,286047001.3,N
1610620095.7,286047000.9,N
1610620115.5,286046998.1,N
1610620135.4,286047002.0,N
1610620155.2,286047001.4,N
1610620175.0,286047003.8,N
1610620175.9,286047003.8,N
1610620195.8,286047004.3,N
1610620215.6,286047002.0,N
1610620235.4,286047002.2,N
1610620255.3,286047001.8,N
1610620275.1,286047001.3,N
1610620295.9,286047002.1,N
1610620315.7,286047002.5,N
1610620335.5,286046997.8,N
1610620355.4,286046994.9,N
1610620375.2,286046995.0,N
1610620395.1,286046994.3,N
1610620396.0,286046994.3,N
1610620415.8,286046993.3,N
1610620435.6,286046993.8,N
1610620455.5,286046994.0,N
1610620475.3,286046999.7,N
1610620495.1,286046998.1,N
1610620515.9,286046996.6,N
1610620535.7,286046996.0,N
1610620555.6,286046993.7,N
1610620575.4,286046994.0,N
1610620595.2,286046994.6,N
1610620615.1,286046992.3,N
1610620616.0,286046992.3,N
1610620635.8,286046996.1,N
1610620655.7,286046997.1,N
1610620675.5,286046994.5,N
1610620695.3,286046992.3,N
1610620715.2,286046995.8,N
1610620735.0,286046994.0,N
1610620735.9,286046994.0,N
1610620755.8,286046990.7,N
1610620775.6,286046989.3,Y
1610620795.4,286046992.2,P
1610620815.3,286046992.7,P
1610620835.1,286046989.1,P
1610620855.9,286046990.8,Y
1610620875.7,286047007.3,P
1610620895.5,286047010.8,N
1610620915.4,286047017.2,N
1610620935.2,286047029.9,Y
1610620955.0,286047027.5,P
1610620956.0,286047027.5,N
1610620975.8,286047037.6,P
1610620995.6,286047041.2,Y
1610621015.5,286047010.3,P
1610621035.3,286047006.6,N
1610621055.1,286047008.6,N
1610621075.9,286047007.2,N
1610621095.7,286047002.8,N
1610621115.6,286046998.5,N
1610621135.4,286047002.0,N
1610621155.2,286047003.9,N
1610621175.1,286046996.6,N
1610621176.0,286046996.6,N
1610621195.8,286046997.9,N
1610621215.7,286047002.4,N
1610621235.5,286047006.1,N
1610621255.3,286047006.4,N
1610621275.2,286047013.4,N
1610621295.0,286047017.6,N
1610621295.9,286047017.6,N
1610621315.7,286047020.4,N
1610621335.6,286047026.5,Y
1610621355.4,286047033.2,P
1610621375.3,286047032.0,N
1610621395.1,286047029.7,N
1610621415.8,286047028.3,N
1610621435.7,286047017.9,N
1610621455.5,286047018.7,N
1610621475.4,286047025.4,N
1610621495.2,286047028.5,Y
1610621515.0,286047001.6,P
1610621515.9,286047001.6,N
1610621535.8,286047000.9,N
1610621555.6,286046996.6,N
1610621575.5,286046994.9,N
1610621595.3,286046993.2,N
1610621615.1,286046986.2,N
1610621635.9,286046983.0,N
1610621655.7,286046980.8,N
1610621675.5,286046974.2,N
1610621695.4,286046975.6,N
1610621715.2,286046972.1,N
1610621735.1,286046966.5,N
1610621736.0,286046966.5,N
1610621755.8,286046965.0,N
1610621775.6,286046966.6,N
1610621795.5,286046968.7,N
1610621815.3,286046969.9,N
1610621835.2,286046972.4,N
1610621855.9,286046970.8,N
1610621875.7,286046965.6,N
1610621895.6,286046964.2,N
1610621915.4,286046958.7,N
1610621935.2,286046958.1,N
1610621955.1,286046960.7,N
1610621956.0,286046960.7,N
1610621975.8,286046960.1,N
1610621995.7,286046958.1,N
